[[{"header":{"parameterUnit":"m.s-1","parameterCategory":2,"la1":30.2991,"la2":30.254,"lo1":-89.0895,"lo2":-89.0444,"dy":0.0017,"dx":0.0017,"nx":28,"ny":28,"refTime":"2023-04-23T21:00:00:Z","depth":"0","parameterNumber":2,"parameterNumberName":"U-component_of_CURRENTS"},"data":[0,0,0,0,0,0,0,0,0,0,0,0,0,0,0,0,0,0,0,0,0,0,0,0,0,0,0,0,0,0,0,0,0,0,0,0,0,0,0,0,0,0,0,0,0,0,0,0,0,0,0,0,0,0,0,0,0,0,-0.2814,-0.2815,0,-0.2878,-0.2878,-0.2879,-0.2857,-0.2856,-0.2855,-0.2854,-0.2893,-0.2896,-0.2898,0,0,0,0,0,0,0,0,0,0,0,0,0,-0.2692,-0.2694,-0.2814,-0.2815,-0.2816,-0.2878,-0.2878,-0.2879,-0.2858,-0.2856,-0.2855,-0.2853,-0.2893,-0.2895,-0.2898,0,0,0,0,0,0,0,0,0,0,0,0,0,-0.2748,-0.2695,-0.2814,-0.2814,-0.2815,-0.2877,-0.2878,-0.2879,-0.2858,-0.2856,-0.2854,-0.2852,-0.2892,-0.2895,-0.2898,-0.2955,0,0,-0.2908,-0.291,0,0,0,0,0,0,0,0,-0.2744,-0.2752,-0.2813,-0.2814,-0.2815,-0.2859,-0.285,-0.2904,-0.2858,-0.284,-0.2854,-0.2852,-0.2882,-0.2886,-0.29,-0.2957,-0.2959,-0.2909,-0.2911,-0.2912,-0.2913,0,0,0,0,0,0,0,-0.2741,-0.2749,-0.2838,-0.2815,-0.2816,-0.2817,-0.2823,-0.286,-0.2869,-0.2841,-0.284,-0.2851,-0.2882,-0.2897,-0.2901,-0.296,-0.2909,-0.2911,-0.2914,-0.2915,-0.3022,-0.3023,0,0,0,0,0,0,-0.2738,-0.2746,-0.2836,-0.284,-0.2777,-0.2821,-0.2827,-0.2846,-0.2869,-0.2871,-0.2852,-0.285,-0.2892,-0.2897,-0.2902,-0.2925,-0.2912,-0.2915,-0.2917,-0.3021,-0.3022,-0.3023,0,0,0,0,0,0,-0.2735,-0.2746,-0.2833,-0.2795,-0.2806,-0.2825,-0.2846,-0.2848,-0.2857,-0.2878,-0.2879,-0.2858,-0.2891,-0.2897,-0.2926,-0.2928,-0.2917,-0.292,-0.302,-0.3021,-0.3023,-0.3002,0,0,0,0,0,0,-0.2732,-0.2745,-0.2754,-0.2795,-0.2808,-0.2863,-0.2848,-0.285,-0.2867,-0.2864,-0.2884,-0.2886,-0.289,-0.2921,-0.2929,-0.2933,-0.2922,-0.3019,-0.3021,-0.3022,-0.3001,-0.3002,-0.3003,0,0,0,0,0,-0.2727,-0.2746,-0.2754,-0.2765,-0.2822,-0.2864,-0.2871,-0.2876,-0.2869,-0.2877,-0.2887,-0.2885,-0.2937,-0.2925,-0.2934,-0.2938,-0.3018,-0.302,-0.3022,-0.3001,-0.3002,-0.3003,0,0,0,0,0,0,-0.2696,-0.2748,-0.2757,-0.279,-0.2822,-0.2861,-0.2871,-0.2882,-0.2899,-0.2891,-0.2904,-0.2908,-0.2928,-0.2948,-0.2934,-0.2976,-0.2975,-0.2979,-0.2956,-0.2957,-0.2958,-0.2959,-0.2925,0,0,0,0,0,-0.2697,-0.2722,-0.2771,-0.2794,-0.2813,-0.2844,-0.2861,-0.287,-0.2894,-0.2899,-0.2914,-0.2931,-0.2949,-0.2962,-0.2981,-0.3018,-0.301,-0.3026,-0.3027,-0.3027,-0.3036,-0.3017,-0.3016,-0.3029,-0.3029,-0.3029,0,0,-0.269,-0.2722,-0.2735,-0.2789,-0.2813,-0.285,-0.2849,-0.2876,-0.2899,-0.2904,-0.293,-0.2935,-0.2959,-0.2981,-0.2994,-0.2996,-0.3018,-0.303,-0.3029,-0.3038,-0.3018,-0.3017,-0.3015,-0.3031,-0.3031,-0.303,0,0,-0.2696,-0.2719,-0.2747,-0.2779,-0.2823,-0.2846,-0.2856,-0.2898,-0.2903,-0.2939,-0.2936,-0.2945,-0.2989,-0.2994,-0.3006,-0.3033,-0.3018,-0.3039,-0.305,-0.303,-0.3028,-0.3026,-0.3002,-0.2998,-0.3044,-0.3044,-0.3044,0,-0.2684,-0.2727,-0.2759,-0.2798,-0.282,-0.2847,-0.2879,-0.2903,-0.2944,-0.2952,-0.2942,-0.2983,-0.2994,-0.3019,-0.3019,-0.3032,-0.3017,-0.3038,-0.3028,-0.3026,-0.3025,-0.3,-0.2996,-0.3043,-0.3043,-0.3044,-0.3044,0,-0.2719,-0.275,-0.2768,-0.2825,-0.2854,-0.2881,-0.2924,-0.2946,-0.2954,-0.2972,-0.299,-0.2999,-0.302,-0.3023,-0.303,-0.3033,-0.3022,-0.3022,-0.3017,-0.3021,-0.2996,-0.2992,-0.3042,-0.3043,-0.3043,-0.3043,0,0,-0.2689,-0.2776,-0.2779,-0.2807,-0.2865,-0.2894,-0.2933,-0.2972,-0.2997,-0.301,-0.3031,-0.3044,-0.3036,-0.305,-0.3052,-0.3041,-0.3006,-0.3028,-0.3028,-0.299,-0.2954,-0.2933,-0.2927,-0.2994,-0.2994,-0.2994,-0.2934,0,-0.2699,-0.2766,-0.2808,-0.2859,-0.2891,-0.293,-0.2966,-0.3002,-0.3024,-0.3052,-0.3048,-0.3066,-0.3052,-0.3054,-0.3039,-0.3026,-0.2997,-0.3022,-0.2969,-0.2968,-0.2937,-0.2923,-0.2854,-0.2795,-0.293,-0.293,-0.2929,0,-0.2708,-0.2752,-0.2805,-0.2873,-0.2892,-0.2924,-0.2975,-0.3016,-0.306,-0.3072,-0.3082,-0.3089,-0.3087,-0.3065,-0.3025,-0.3039,-0.2992,-0.297,-0.2966,-0.2956,-0.2941,-0.2818,-0.2783,-0.276,-0.2923,-0.2924,-0.2924,0,-0.2656,-0.2741,-0.2777,-0.2803,-0.2893,-0.2912,-0.2949,-0.3005,-0.304,-0.3078,-0.3097,-0.3099,-0.3095,-0.3051,-0.3014,-0.3011,-0.2961,-0.2949,-0.2881,-0.2879,-0.2817,-0.281,-0.2743,-0.2895,-0.2895,-0.2895,-0.2895,0,-0.2639,-0.2666,-0.2755,-0.2777,-0.2814,-0.2882,-0.2922,-0.2965,-0.3026,-0.3055,-0.3093,-0.3108,-0.3089,-0.307,-0.3019,-0.2946,-0.2957,-0.2879,-0.2862,-0.2808,-0.2802,-0.2779,-0.2787,-0.2893,-0.2893,-0.2894,-0.2894,0,-0.2569,-0.2637,-0.2676,-0.2762,-0.279,-0.2807,-0.2896,-0.2924,-0.2996,-0.3035,-0.3044,-0.3103,-0.3082,-0.3064,-0.3001,-0.2948,-0.2837,-0.2848,-0.2789,-0.2766,-0.2682,-0.2692,-0.2602,-0.2523,-0.2757,-0.2756,-0.2756,0,-0.2539,-0.2553,-0.2638,-0.2657,-0.269,-0.2741,-0.2773,-0.2874,-0.2911,-0.3021,-0.3025,-0.3056,-0.3056,-0.2992,-0.2921,-0.2835,-0.279,-0.2703,-0.2684,-0.2666,-0.2664,-0.2654,-0.2593,-0.2584,-0.2582,-0.2581,-0.2579,0,-0.2455,-0.2481,-0.2515,-0.2557,-0.259,-0.2638,-0.2694,-0.2732,-0.2847,-0.2899,-0.2956,-0.2979,-0.297,-0.2886,-0.2809,-0.2732,-0.2648,-0.2665,-0.2652,-0.2532,-0.2509,-0.2428,-0.264,-0.2564,-0.2566,-0.2567,-0.2568,-0.2568,-0.2366,-0.2364,-0.2405,-0.2429,-0.247,-0.2495,-0.2489,-0.2582,-0.2635,-0.2702,-0.2816,-0.2861,-0.284,-0.2742,-0.2663,-0.2534,-0.2539,-0.2446,-0.246,-0.2452,-0.2376,-0.2562,-0.2471,-0.2472,-0.2473,-0.2474,-0.2474,0,-0.2243,-0.2258,-0.2275,-0.2299,-0.2279,-0.235,-0.2401,-0.2379,-0.2395,-0.255,-0.2603,-0.2721,-0.2626,-0.2606,-0.2497,-0.2372,-0.2277,-0.229,-0.2253,-0.2196,-0.2358,-0.2353,-0.2224,-0.2224,-0.2224,-0.2224,-0.2224,-0.2224,-0.2183,-0.215,-0.2161,-0.2088,-0.2101,-0.2031,-0.2025,-0.203,-0.211,-0.2224,-0.2392,-0.2561,-0.2574,-0.2641,-0.2452,-0.2305,-0.2195,-0.2128,-0.2108,-0.2243,-0.2259,-0.2274,-0.2269,-0.2126,-0.2126,-0.188,-0.1878,-0.1877]},{"header":{"parameterUnit":"m.s-1","parameterCategory":2,"la1":30.2991,"la2":30.254,"lo1":-89.0895,"lo2":-89.0444,"dy":0.0017,"dx":0.0017,"nx":28,"ny":28,"refTime":"2023-04-23T21:00:00:Z","depth":"0","parameterNumber":3,"parameterNumberName":"V-component_of_CURRENTS"},"data":[0,0,0,0,0,0,0,0,0,0,0,0,0,0,0,0,0,0,0,0,0,0,0,0,0,0,0,0,0,0,0,0,0,0,0,0,0,0,0,0,0,0,0,0,0,0,0,0,0,0,0,0,0,0,0,0,0,0,-0.0434,-0.0433,0,-0.0369,-0.0368,-0.0367,-0.0307,-0.0306,-0.0305,-0.0305,-0.019,-0.0188,-0.0185,0,0,0,0,0,0,0,0,0,0,0,0,0,-0.0463,-0.0464,-0.0434,-0.0433,-0.0432,-0.0369,-0.0368,-0.0367,-0.0307,-0.0306,-0.0305,-0.0304,-0.0191,-0.0188,-0.0185,0,0,0,0,0,0,0,0,0,0,0,0,0,-0.043,-0.0464,-0.0434,-0.0394,-0.039,-0.0369,-0.0368,-0.0367,-0.0307,-0.0306,-0.0305,-0.0304,-0.0192,-0.0188,-0.0185,-0.0187,0,0,-0.0174,-0.0173,0,0,0,0,0,0,0,0,-0.0432,-0.0429,-0.0401,-0.0397,-0.0392,-0.0344,-0.0336,-0.0304,-0.0308,-0.0339,-0.0305,-0.0303,-0.0238,-0.023,-0.0222,-0.0182,-0.0177,-0.0174,-0.0172,-0.017,-0.0169,0,0,0,0,0,0,0,-0.0435,-0.0432,-0.0409,-0.04,-0.0395,-0.0365,-0.0359,-0.033,-0.0295,-0.0336,-0.0332,-0.0324,-0.0235,-0.0226,-0.0219,-0.0175,-0.0174,-0.0171,-0.0169,-0.0167,-0.0126,-0.0127,0,0,0,0,0,0,-0.0445,-0.0434,-0.0411,-0.0407,-0.0409,-0.0365,-0.0359,-0.0361,-0.0297,-0.0286,-0.0325,-0.0321,-0.0232,-0.0223,-0.0214,-0.0202,-0.017,-0.0167,-0.0165,-0.0125,-0.0126,-0.0127,0,0,0,0,0,0,-0.0447,-0.0444,-0.0413,-0.0418,-0.0411,-0.0366,-0.0369,-0.0361,-0.0349,-0.0288,-0.0276,-0.0322,-0.0231,-0.0219,-0.0195,-0.0198,-0.0166,-0.0162,-0.0124,-0.0125,-0.0127,-0.0185,0,0,0,0,0,0,-0.0448,-0.0446,-0.0454,-0.0419,-0.0412,-0.0406,-0.037,-0.036,-0.0346,-0.034,-0.0282,-0.027,-0.0229,-0.02,-0.0191,-0.0192,-0.016,-0.0122,-0.0124,-0.0126,-0.0182,-0.0188,-0.0194,0,0,0,0,0,-0.0449,-0.0467,-0.0455,-0.0452,-0.0424,-0.0406,-0.0401,-0.0364,-0.0347,-0.0348,-0.0311,-0.0271,-0.0205,-0.0198,-0.0187,-0.0187,-0.0122,-0.0124,-0.0126,-0.0179,-0.0187,-0.0193,0,0,0,0,0,0,-0.0487,-0.0461,-0.0447,-0.0457,-0.0435,-0.0396,-0.0395,-0.0372,-0.0346,-0.0341,-0.0283,-0.0269,-0.0252,-0.0218,-0.0212,-0.0184,-0.0157,-0.0158,-0.0202,-0.0208,-0.0214,-0.0215,-0.0157,0,0,0,0,0,-0.05,-0.0505,-0.0474,-0.0482,-0.0474,-0.0438,-0.0427,-0.0405,-0.0374,-0.0361,-0.0319,-0.0281,-0.0255,-0.023,-0.0204,-0.0186,-0.0144,-0.0181,-0.0187,-0.0192,-0.0187,-0.0134,-0.0134,-0.0134,-0.0134,-0.0134,0,0,-0.0516,-0.0504,-0.0506,-0.049,-0.0471,-0.0471,-0.0429,-0.042,-0.0414,-0.0354,-0.0336,-0.0304,-0.0258,-0.024,-0.0228,-0.0208,-0.0173,-0.0195,-0.0199,-0.0191,-0.0136,-0.0136,-0.0135,-0.0136,-0.0136,-0.0135,0,0,-0.0554,-0.0542,-0.0558,-0.0546,-0.0524,-0.0501,-0.0502,-0.0467,-0.0444,-0.0429,-0.0386,-0.0354,-0.0313,-0.0273,-0.025,-0.0274,-0.0214,-0.0272,-0.0289,-0.0237,-0.0236,-0.0235,-0.0191,-0.0185,-0.0265,-0.0265,-0.0265,0,-0.0576,-0.0591,-0.056,-0.0573,-0.0568,-0.0519,-0.0535,-0.0508,-0.0468,-0.0449,-0.0432,-0.0366,-0.0326,-0.029,-0.0298,-0.0284,-0.025,-0.0263,-0.0243,-0.0241,-0.0238,-0.0193,-0.0186,-0.0268,-0.0268,-0.0267,-0.0267,0,-0.0626,-0.0634,-0.0644,-0.0642,-0.0634,-0.0639,-0.06,-0.0581,-0.055,-0.0515,-0.0478,-0.0421,-0.0376,-0.0362,-0.0334,-0.03,-0.0282,-0.0264,-0.0222,-0.0241,-0.0194,-0.0185,-0.0272,-0.0271,-0.027,-0.027,0,0,-0.0684,-0.0681,-0.0683,-0.0693,-0.0672,-0.0673,-0.0658,-0.0629,-0.0616,-0.0564,-0.0538,-0.0483,-0.0442,-0.0414,-0.0368,-0.0317,-0.0272,-0.0286,-0.0282,-0.0237,-0.0164,-0.0115,-0.01,-0.025,-0.0249,-0.0247,-0.0141,0,-0.0732,-0.0774,-0.0752,-0.0783,-0.0802,-0.0751,-0.0747,-0.0711,-0.0663,-0.0623,-0.0543,-0.0509,-0.0464,-0.0443,-0.0385,-0.0302,-0.0251,-0.0303,-0.0156,-0.0151,-0.01,-0.0089,-0.0052,0.005,-0.0132,-0.013,-0.0129,0,-0.0788,-0.0809,-0.0854,-0.0858,-0.086,-0.0867,-0.0841,-0.0824,-0.0747,-0.0708,-0.064,-0.0577,-0.0493,-0.0457,-0.0308,-0.0345,-0.0263,-0.0193,-0.0187,-0.0111,-0.0086,0.0042,0.0074,0.0246,-0.0115,-0.0116,-0.0117,0,-0.0854,-0.0876,-0.0916,-0.092,-0.0918,-0.092,-0.0908,-0.0853,-0.0837,-0.0751,-0.0728,-0.0617,-0.056,-0.0441,-0.0293,-0.0301,-0.0127,-0.0117,0.0006,0.001,0.0088,0.0097,0.0313,-0.0014,-0.0014,-0.0014,-0.0014,0,-0.092,-0.0947,-0.0951,-0.0975,-0.102,-0.0987,-0.1004,-0.0967,-0.0911,-0.0895,-0.0777,-0.0737,-0.0553,-0.043,-0.0302,-0.0114,-0.0129,0.0013,0.0048,0.0066,0.0072,0.0263,0.0336,-0.001,-0.0011,-0.0012,-0.0013,0,-0.0988,-0.0987,-0.1036,-0.1048,-0.1055,-0.1086,-0.108,-0.1086,-0.1017,-0.0986,-0.0963,-0.0816,-0.0645,-0.0454,-0.0246,-0.0122,0.0166,0.0113,0.0121,0.0155,0.0429,0.0495,0.0755,0.0852,0.0271,0.0273,0.0275,0,-0.1028,-0.1059,-0.1101,-0.114,-0.1149,-0.118,-0.1205,-0.1152,-0.1146,-0.1039,-0.1032,-0.0855,-0.0725,-0.0388,-0.0131,0.0128,0.026,0.0309,0.0308,0.0468,0.0568,0.062,0.0685,0.0384,0.0386,0.0388,0.039,0,-0.1101,-0.1111,-0.1154,-0.1237,-0.1279,-0.1322,-0.1338,-0.1351,-0.1276,-0.1231,-0.1136,-0.1016,-0.0657,-0.0325,0.0035,0.0184,0.0458,0.0357,0.0532,0.069,0.0755,0.0855,0.0281,0.0408,0.0406,0.0405,0.0404,0.0403,-0.1149,-0.1204,-0.1258,-0.1336,-0.1391,-0.1449,-0.1484,-0.1475,-0.1463,-0.1368,-0.1233,-0.1026,-0.0487,0.0036,0.0229,0.0664,0.062,0.078,0.085,0.0891,0.0989,0.045,0.0608,0.0607,0.0607,0.0606,0.0606,0,-0.1213,-0.1271,-0.1353,-0.1442,-0.1519,-0.1517,-0.1563,-0.1576,-0.1565,-0.1417,-0.1285,-0.0728,-0.0209,0.0289,0.0931,0.1153,0.1198,0.1252,0.1342,0.1386,0.0926,0.0935,0.116,0.116,0.1159,0.1159,0.1159,0.1159,-0.1249,-0.1343,-0.1388,-0.153,-0.1589,-0.167,-0.1697,-0.1685,-0.1593,-0.1349,-0.1041,-0.0798,-0.0006,0.107,0.1639,0.1654,0.1839,0.181,0.1914,0.1599,0.156,0.1522,0.155,0.1901,0.1902,0.2354,0.2359,0.2362]}],[{"header":{"parameterUnit":"m.s-1","parameterCategory":2,"la1":30.2991,"la2":30.254,"lo1":-89.0895,"lo2":-89.0444,"dy":0.0017,"dx":0.0017,"nx":28,"ny":28,"refTime":"2023-04-23T21:00:00:Z","depth":"2","parameterNumber":2,"parameterNumberName":"U-component_of_CURRENTS"},"data":[0,0,0,0,0,0,0,0,0,0,0,0,0,0,0,0,0,0,0,0,0,0,0,0,0,0,0,0,0,0,0,0,0,0,0,0,0,0,0,0,0,0,0,0,0,0,0,0,0,0,0,0,0,0,0,0,0,0,-0.2723,-0.2724,0,-0.2785,-0.2786,-0.2786,-0.2769,-0.2768,-0.2767,-0.2766,-0.2804,-0.2806,-0.2808,0,0,0,0,0,0,0,0,0,0,0,0,0,-0.2605,-0.2607,-0.2723,-0.2724,-0.2725,-0.2785,-0.2786,-0.2787,-0.2769,-0.2768,-0.2766,-0.2765,-0.2803,-0.2805,-0.2808,0,0,0,0,0,0,0,0,0,0,0,0,0,-0.2659,-0.2608,-0.2723,-0.2725,-0.2726,-0.2785,-0.2786,-0.2787,-0.2769,-0.2768,-0.2766,-0.2765,-0.2802,-0.2805,-0.2808,-0.2861,0,0,-0.2818,-0.2819,0,0,0,0,0,0,0,0,-0.2656,-0.2663,-0.2724,-0.2725,-0.2726,-0.2769,-0.2758,-0.2811,-0.277,-0.2751,-0.2766,-0.2764,-0.2792,-0.2796,-0.2809,-0.2862,-0.2864,-0.2818,-0.282,-0.2821,-0.2822,0,0,0,0,0,0,0,-0.2652,-0.2661,-0.2746,-0.2725,-0.2726,-0.2728,-0.2733,-0.2768,-0.2779,-0.2753,-0.2752,-0.2762,-0.2792,-0.2806,-0.281,-0.2865,-0.2818,-0.282,-0.2822,-0.2824,-0.2929,-0.293,0,0,0,0,0,0,-0.265,-0.2658,-0.2744,-0.2748,-0.2688,-0.2732,-0.2738,-0.2756,-0.2779,-0.2781,-0.2763,-0.2761,-0.2802,-0.2807,-0.2811,-0.2837,-0.2821,-0.2824,-0.2826,-0.2928,-0.2929,-0.293,0,0,0,0,0,0,-0.2647,-0.2657,-0.2742,-0.2705,-0.2716,-0.2735,-0.2756,-0.2758,-0.2768,-0.2787,-0.2789,-0.2771,-0.2801,-0.2807,-0.2837,-0.2839,-0.2825,-0.2828,-0.2927,-0.2928,-0.293,-0.2912,0,0,0,0,0,0,-0.2644,-0.2656,-0.2666,-0.2705,-0.2718,-0.2771,-0.2758,-0.276,-0.2778,-0.2775,-0.2795,-0.2797,-0.28,-0.2833,-0.284,-0.2843,-0.283,-0.2926,-0.2928,-0.2929,-0.2911,-0.2913,-0.2914,0,0,0,0,0,-0.2639,-0.2658,-0.2666,-0.2676,-0.2732,-0.2772,-0.2779,-0.2785,-0.278,-0.2788,-0.28,-0.2796,-0.2849,-0.2836,-0.2845,-0.2849,-0.2925,-0.2927,-0.2929,-0.2911,-0.2912,-0.2914,0,0,0,0,0,0,-0.261,-0.266,-0.2669,-0.2701,-0.2732,-0.2769,-0.278,-0.2791,-0.281,-0.2804,-0.2816,-0.282,-0.2841,-0.286,-0.2845,-0.2886,-0.2884,-0.2888,-0.2867,-0.2869,-0.287,-0.287,-0.2833,0,0,0,0,0,-0.2611,-0.2635,-0.2682,-0.2705,-0.2723,-0.2754,-0.2771,-0.278,-0.2805,-0.2811,-0.2826,-0.2844,-0.2862,-0.2875,-0.2893,-0.2929,-0.2921,-0.2937,-0.2938,-0.2939,-0.2946,-0.2928,-0.2927,-0.2937,-0.2937,-0.2937,0,0,-0.2604,-0.2635,-0.2648,-0.27,-0.2724,-0.2759,-0.2759,-0.2787,-0.2809,-0.2815,-0.2843,-0.2849,-0.2872,-0.2895,-0.2908,-0.2909,-0.2931,-0.2942,-0.2942,-0.2949,-0.293,-0.2929,-0.2928,-0.2939,-0.2939,-0.2938,0,0,-0.261,-0.2634,-0.266,-0.2691,-0.2734,-0.2757,-0.2767,-0.2808,-0.2815,-0.2852,-0.285,-0.2861,-0.2904,-0.291,-0.2921,-0.295,-0.2933,-0.2956,-0.2967,-0.2949,-0.2947,-0.2946,-0.2922,-0.2919,-0.2961,-0.2961,-0.2961,0,-0.26,-0.2641,-0.2672,-0.2709,-0.2731,-0.2758,-0.2789,-0.2814,-0.2855,-0.2864,-0.2856,-0.2899,-0.2909,-0.2935,-0.2937,-0.2949,-0.2935,-0.2953,-0.2947,-0.2946,-0.2944,-0.2921,-0.2917,-0.2961,-0.2961,-0.2961,-0.2961,0,-0.2633,-0.2663,-0.268,-0.2736,-0.2764,-0.279,-0.2833,-0.2856,-0.2866,-0.2884,-0.2904,-0.2915,-0.2937,-0.294,-0.2948,-0.2952,-0.2942,-0.2941,-0.2935,-0.2942,-0.2917,-0.2914,-0.296,-0.296,-0.296,-0.296,0,0,-0.2604,-0.2687,-0.269,-0.2718,-0.2775,-0.2803,-0.2842,-0.2881,-0.2906,-0.2922,-0.2943,-0.2958,-0.2952,-0.2966,-0.2969,-0.296,-0.2929,-0.2949,-0.2948,-0.2911,-0.2881,-0.2858,-0.2852,-0.2919,-0.2919,-0.2918,-0.2862,0,-0.2613,-0.2677,-0.2718,-0.2767,-0.2798,-0.2837,-0.2873,-0.291,-0.2933,-0.2962,-0.296,-0.298,-0.2967,-0.2971,-0.2958,-0.2948,-0.2921,-0.2944,-0.2894,-0.2893,-0.2859,-0.2848,-0.2623,-0.2554,-0.2859,-0.2858,-0.2858,0,-0.2622,-0.2664,-0.2715,-0.2781,-0.2799,-0.283,-0.2882,-0.2922,-0.2968,-0.2982,-0.2994,-0.3002,-0.3002,-0.2982,-0.2946,-0.296,-0.2916,-0.2896,-0.2893,-0.2878,-0.2864,-0.2601,-0.2536,-0.2852,-0.2852,-0.2853,-0.2853,0,-0.2571,-0.2653,-0.2687,-0.2713,-0.2799,-0.2819,-0.2856,-0.2913,-0.2948,-0.2988,-0.3008,-0.3012,-0.3012,-0.297,-0.2938,-0.2935,-0.2889,-0.2877,-0.281,-0.2808,-0.2612,-0.2594,-0.2826,-0.2826,-0.2826,-0.2826,-0.2827,0,-0.2554,-0.258,-0.2666,-0.2687,-0.2724,-0.2791,-0.2831,-0.2874,-0.2935,-0.2965,-0.3005,-0.3021,-0.3006,-0.299,-0.2942,-0.2873,-0.2885,-0.2808,-0.2792,-0.2601,-0.2584,-0.2847,-0.285,-0.2824,-0.2825,-0.2825,-0.2826,0,-0.2486,-0.2552,-0.2589,-0.2673,-0.2701,-0.2718,-0.2806,-0.2834,-0.2907,-0.2947,-0.2957,-0.3017,-0.3,-0.2984,-0.2927,-0.2875,-0.2816,-0.2779,-0.2563,-0.2524,-0.2739,-0.2743,-0.2691,-0.269,-0.2689,-0.2688,-0.2687,0,-0.2456,-0.2469,-0.2552,-0.2572,-0.2605,-0.2655,-0.2686,-0.2787,-0.2822,-0.2933,-0.2937,-0.2972,-0.297,-0.291,-0.2808,-0.2716,-0.2782,-0.247,-0.243,-0.2736,-0.2725,-0.273,-0.2735,-0.2148,-0.2143,-0.2139,-0.2135,0,-0.2375,-0.2401,-0.2434,-0.2475,-0.2508,-0.2554,-0.2609,-0.2645,-0.2759,-0.2808,-0.2866,-0.2887,-0.285,-0.2674,-0.2585,-0.2496,-0.2476,-0.2386,-0.2728,-0.2247,-0.2228,-0.2217,-0.2238,-0.2098,-0.2102,-0.2105,-0.2107,-0.2108,-0.2289,-0.2287,-0.2326,-0.235,-0.2391,-0.2414,-0.2408,-0.2488,-0.2536,-0.2568,-0.2693,-0.2647,-0.26,-0.2369,-0.2227,-0.2105,-0.228,-0.2152,-0.2163,-0.2178,-0.2155,-0.2138,-0.1986,-0.1989,-0.1991,-0.1994,-0.1996,0,-0.2165,-0.2184,-0.2201,-0.2223,-0.2199,-0.2274,-0.2321,-0.2276,-0.2274,-0.2349,-0.2372,-0.2138,-0.2032,-0.1993,-0.1752,-0.1704,-0.1644,-0.1623,-0.1537,-0.1576,-0.161,-0.1556,-0.1229,-0.1226,-0.1224,-0.1222,0,0,-0.2105,-0.2071,-0.208,-0.2006,-0.2024,-0.1946,-0.1938,-0.19,-0.191,-0.1856,-0.184,-0.1977,-0.1994,-0.1632,-0.1519,-0.1349,-0.1448,-0.1273,-0.1892,-0.1834,-0.1866,-0.1923,-0.1886,0,0,0,0,0]},{"header":{"parameterUnit":"m.s-1","parameterCategory":2,"la1":30.2991,"la2":30.254,"lo1":-89.0895,"lo2":-89.0444,"dy":0.0017,"dx":0.0017,"nx":28,"ny":28,"refTime":"2023-04-23T21:00:00:Z","depth":"2","parameterNumber":3,"parameterNumberName":"V-component_of_CURRENTS"},"data":[0,0,0,0,0,0,0,0,0,0,0,0,0,0,0,0,0,0,0,0,0,0,0,0,0,0,0,0,0,0,0,0,0,0,0,0,0,0,0,0,0,0,0,0,0,0,0,0,0,0,0,0,0,0,0,0,0,0,-0.0362,-0.0361,0,-0.0299,-0.0298,-0.0298,-0.024,-0.0239,-0.0238,-0.0238,-0.0127,-0.0124,-0.0122,0,0,0,0,0,0,0,0,0,0,0,0,0,-0.039,-0.039,-0.0362,-0.0361,-0.0361,-0.0299,-0.0298,-0.0298,-0.024,-0.0239,-0.0238,-0.0237,-0.0127,-0.0125,-0.0122,0,0,0,0,0,0,0,0,0,0,0,0,0,-0.0358,-0.039,-0.0362,-0.0324,-0.032,-0.0299,-0.0298,-0.0297,-0.024,-0.0239,-0.0238,-0.0237,-0.0128,-0.0125,-0.0122,-0.0124,0,0,-0.0111,-0.011,0,0,0,0,0,0,0,0,-0.036,-0.0358,-0.033,-0.0327,-0.0322,-0.0276,-0.0268,-0.0237,-0.024,-0.0271,-0.0237,-0.0236,-0.0173,-0.0166,-0.0158,-0.0118,-0.0114,-0.0111,-0.0109,-0.0108,-0.0107,0,0,0,0,0,0,0,-0.0363,-0.036,-0.0338,-0.033,-0.0324,-0.0295,-0.029,-0.0262,-0.0228,-0.0268,-0.0264,-0.0256,-0.017,-0.0161,-0.0154,-0.0112,-0.0111,-0.0108,-0.0106,-0.0105,-0.0067,-0.0068,0,0,0,0,0,0,-0.0373,-0.0362,-0.034,-0.0336,-0.0338,-0.0296,-0.029,-0.0292,-0.023,-0.0219,-0.0257,-0.0254,-0.0167,-0.0158,-0.015,-0.0141,-0.0108,-0.0104,-0.0103,-0.0066,-0.0067,-0.0068,0,0,0,0,0,0,-0.0374,-0.0372,-0.0342,-0.0346,-0.034,-0.0297,-0.03,-0.0291,-0.0281,-0.0222,-0.021,-0.0254,-0.0166,-0.0155,-0.0132,-0.0136,-0.0103,-0.01,-0.0065,-0.0066,-0.0068,-0.0128,0,0,0,0,0,0,-0.0375,-0.0373,-0.0382,-0.0348,-0.0341,-0.0336,-0.03,-0.0291,-0.0278,-0.0272,-0.0216,-0.0204,-0.0164,-0.0137,-0.0128,-0.0131,-0.0097,-0.0064,-0.0066,-0.0067,-0.0124,-0.0131,-0.0137,0,0,0,0,0,-0.0377,-0.0394,-0.0383,-0.038,-0.0353,-0.0337,-0.0331,-0.0295,-0.0279,-0.0281,-0.0245,-0.0206,-0.0143,-0.0135,-0.0125,-0.0127,-0.0063,-0.0065,-0.0067,-0.0122,-0.013,-0.0137,0,0,0,0,0,0,-0.0414,-0.0389,-0.0376,-0.0385,-0.0365,-0.0327,-0.0326,-0.0304,-0.0278,-0.0274,-0.0217,-0.0204,-0.0188,-0.0156,-0.0149,-0.0124,-0.0097,-0.0097,-0.0142,-0.0149,-0.0155,-0.0156,-0.0094,0,0,0,0,0,-0.0427,-0.0432,-0.0402,-0.0411,-0.0403,-0.0368,-0.0358,-0.0336,-0.0307,-0.0295,-0.0254,-0.0217,-0.0192,-0.0169,-0.0143,-0.0127,-0.0084,-0.0123,-0.013,-0.0135,-0.013,-0.0078,-0.0078,-0.0076,-0.0076,-0.0076,0,0,-0.0443,-0.0431,-0.0433,-0.0419,-0.04,-0.0401,-0.0359,-0.0352,-0.0347,-0.0287,-0.0272,-0.024,-0.0196,-0.018,-0.0169,-0.0149,-0.0116,-0.0138,-0.0143,-0.0135,-0.008,-0.008,-0.008,-0.0077,-0.0077,-0.0077,0,0,-0.0481,-0.0469,-0.0486,-0.0474,-0.0454,-0.0431,-0.0433,-0.0399,-0.0377,-0.0363,-0.0322,-0.0292,-0.0253,-0.0214,-0.0192,-0.0218,-0.0157,-0.0216,-0.0235,-0.0185,-0.0184,-0.0182,-0.0135,-0.0129,-0.021,-0.0211,-0.0211,0,-0.0503,-0.0519,-0.0489,-0.0502,-0.0497,-0.045,-0.0466,-0.0441,-0.0402,-0.0385,-0.0368,-0.0305,-0.0266,-0.0234,-0.0243,-0.0229,-0.0193,-0.0209,-0.0191,-0.0188,-0.0186,-0.0137,-0.013,-0.0214,-0.0213,-0.0213,-0.0213,0,-0.0554,-0.0562,-0.0572,-0.0571,-0.0564,-0.057,-0.0532,-0.0515,-0.0485,-0.0452,-0.0417,-0.0363,-0.0319,-0.0307,-0.028,-0.0249,-0.0228,-0.0211,-0.0169,-0.0189,-0.0137,-0.0128,-0.0218,-0.0217,-0.0216,-0.0215,0,0,-0.061,-0.0608,-0.0611,-0.0621,-0.0602,-0.0603,-0.0591,-0.0563,-0.0551,-0.0502,-0.0478,-0.0427,-0.0387,-0.036,-0.0316,-0.0267,-0.0222,-0.0235,-0.0231,-0.0182,-0.0111,-0.0064,-0.005,-0.0201,-0.02,-0.0199,-0.0084,0,-0.0658,-0.0701,-0.068,-0.0712,-0.0731,-0.0682,-0.0679,-0.0645,-0.0599,-0.0561,-0.0485,-0.0452,-0.041,-0.0389,-0.0334,-0.0251,-0.02,-0.0254,-0.0102,-0.0098,-0.0049,-0.0038,-0.0052,0.0052,-0.0074,-0.0073,-0.0072,0,-0.0715,-0.0736,-0.0781,-0.0785,-0.0788,-0.0795,-0.0771,-0.0756,-0.0682,-0.0645,-0.0579,-0.0518,-0.0437,-0.0404,-0.0256,-0.0293,-0.0211,-0.0141,-0.0135,-0.0061,-0.0034,0.0054,0.0074,-0.0056,-0.0057,-0.0058,-0.0059,0,-0.078,-0.0802,-0.0841,-0.0845,-0.0844,-0.0848,-0.0837,-0.0785,-0.077,-0.0687,-0.0664,-0.0557,-0.0501,-0.0383,-0.0237,-0.0246,-0.007,-0.0062,0.006,0.0065,0.01,0.0106,0.0041,0.0041,0.0041,0.0041,0.004,0,-0.0844,-0.0872,-0.0876,-0.09,-0.0945,-0.0913,-0.0931,-0.0896,-0.0842,-0.0826,-0.0712,-0.0672,-0.0493,-0.037,-0.0244,-0.0056,-0.007,0.0068,0.0103,0.0077,0.0079,0.0021,0.0017,0.0045,0.0044,0.0043,0.0042,0,-0.0912,-0.0911,-0.0959,-0.0972,-0.0979,-0.1011,-0.1006,-0.1012,-0.0945,-0.0914,-0.0892,-0.0747,-0.0576,-0.0389,-0.0182,-0.0061,0.0108,0.0173,0.0132,0.0161,0.0209,0.02,0.0327,0.033,0.0332,0.0334,0.0335,0,-0.0951,-0.0981,-0.1023,-0.1062,-0.1072,-0.1103,-0.1127,-0.1076,-0.107,-0.0963,-0.0956,-0.078,-0.0651,-0.0315,-0.0068,0.0188,0.0171,0.0318,0.0305,0.0219,0.0241,0.0228,0.0217,0.0324,0.0326,0.0327,0.0328,0,-0.1023,-0.1033,-0.1076,-0.1157,-0.1199,-0.1241,-0.1256,-0.1268,-0.1194,-0.1147,-0.1051,-0.0932,-0.0582,-0.028,0.0073,0.021,0.028,0.0351,0.0287,0.0251,0.0226,0.0244,0.0231,0.0338,0.0337,0.0336,0.0336,0.0335,-0.107,-0.1124,-0.1178,-0.1255,-0.1309,-0.1363,-0.1398,-0.1379,-0.1363,-0.1248,-0.1125,-0.0904,-0.0581,-0.0077,0.0176,0.0408,0.0387,0.0451,0.0444,0.0436,0.0412,0.0392,0.0531,0.0531,0.0531,0.0531,0.0531,0,-0.113,-0.119,-0.1271,-0.1358,-0.1427,-0.1432,-0.1474,-0.1461,-0.1435,-0.1273,-0.1126,-0.0773,-0.0398,-0.0077,0.0311,0.0541,0.051,0.057,0.0493,0.0482,0.0473,0.0447,0.0578,0.0578,0.0579,0.058,0,0,-0.1164,-0.1254,-0.1298,-0.1432,-0.1495,-0.1561,-0.1587,-0.1529,-0.1415,-0.1256,-0.1071,-0.0784,-0.0389,-0.0101,0.0201,0.0404,0.0375,0.0415,0.0355,0.022,0.0208,0.0386,0.0333,0,0,0,0,0]}],[{"header":{"parameterUnit":"m.s-1","parameterCategory":2,"la1":30.2991,"la2":30.254,"lo1":-89.0895,"lo2":-89.0444,"dy":0.0017,"dx":0.0017,"nx":28,"ny":28,"refTime":"2023-04-23T21:00:00:Z","depth":"4","parameterNumber":2,"parameterNumberName":"U-component_of_CURRENTS"},"data":[0,0,0,0,0,0,0,0,0,0,0,0,0,0,0,0,0,0,0,0,0,0,0,0,0,0,0,0,0,0,0,0,0,0,0,0,0,0,0,0,0,0,0,0,0,0,0,0,0,0,0,0,0,0,0,0,0,0,-0.1895,-0.1896,0,-0.1994,-0.1995,-0.1996,-0.205,-0.205,-0.205,-0.205,-0.2179,-0.2183,-0.2186,0,0,0,0,0,0,0,0,0,0,0,0,0,-0.1765,-0.1767,-0.1895,-0.1896,-0.1897,-0.1994,-0.1995,-0.1996,-0.205,-0.205,-0.205,-0.205,-0.2178,-0.2182,-0.2186,0,0,0,0,0,0,0,0,0,0,0,0,0,-0.1838,-0.1767,-0.1895,-0.1936,-0.1941,-0.1993,-0.1995,-0.1996,-0.2049,-0.205,-0.205,-0.205,-0.2177,-0.2182,-0.2187,-0.2212,0,0,-0.2202,-0.2204,0,0,0,0,0,0,0,0,-0.1833,-0.1842,-0.1929,-0.1933,-0.1939,-0.201,-0.1996,-0.207,-0.2049,-0.2008,-0.205,-0.205,-0.2126,-0.2135,-0.2152,-0.2218,-0.2224,-0.2202,-0.2205,-0.2207,-0.2209,0,0,0,0,0,0,0,-0.1828,-0.1838,-0.1934,-0.193,-0.1936,-0.1954,-0.1964,-0.201,-0.2064,-0.2011,-0.2016,-0.2027,-0.2129,-0.2147,-0.2155,-0.2225,-0.2202,-0.2206,-0.2209,-0.2211,-0.2386,-0.2388,0,0,0,0,0,0,-0.1816,-0.1834,-0.193,-0.1937,-0.1886,-0.1956,-0.1968,-0.1986,-0.2063,-0.2075,-0.2027,-0.2029,-0.2138,-0.2149,-0.216,-0.2247,-0.2207,-0.2212,-0.2215,-0.2385,-0.2387,-0.2389,0,0,0,0,0,0,-0.1813,-0.1824,-0.1926,-0.1887,-0.1901,-0.1958,-0.1979,-0.1988,-0.2037,-0.2075,-0.2087,-0.2069,-0.2139,-0.2153,-0.2231,-0.225,-0.2214,-0.2218,-0.2383,-0.2385,-0.2388,-0.2386,0,0,0,0,0,0,-0.1809,-0.1823,-0.1848,-0.1887,-0.1903,-0.1972,-0.1979,-0.199,-0.2042,-0.2047,-0.2115,-0.2125,-0.214,-0.2223,-0.2236,-0.2256,-0.2222,-0.2381,-0.2384,-0.2387,-0.2384,-0.2389,-0.2392,0,0,0,0,0,-0.1804,-0.183,-0.1848,-0.1861,-0.1931,-0.1973,-0.1984,-0.2024,-0.2044,-0.2069,-0.2121,-0.2124,-0.2252,-0.2229,-0.2243,-0.2265,-0.2379,-0.2383,-0.2387,-0.2382,-0.2388,-0.2392,0,0,0,0,0,0,-0.1788,-0.1839,-0.186,-0.1901,-0.1942,-0.1983,-0.2015,-0.2043,-0.2104,-0.212,-0.2154,-0.2169,-0.2236,-0.2262,-0.2236,-0.2327,-0.2313,-0.232,-0.2305,-0.2311,-0.2315,-0.2302,-0.2226,0,0,0,0,0,-0.1795,-0.183,-0.1875,-0.1912,-0.1934,-0.1982,-0.2012,-0.204,-0.209,-0.2118,-0.2166,-0.2218,-0.2258,-0.2295,-0.2333,-0.2396,-0.2385,-0.2419,-0.2423,-0.2426,-0.2427,-0.2419,-0.2421,-0.2401,-0.2401,-0.2401,0,0,-0.18,-0.1832,-0.1854,-0.1911,-0.1948,-0.1989,-0.2002,-0.2054,-0.2095,-0.2123,-0.2206,-0.2236,-0.2278,-0.2335,-0.2369,-0.2365,-0.2427,-0.2431,-0.2433,-0.2432,-0.2423,-0.2425,-0.2426,-0.2404,-0.2403,-0.2403,0,0,-0.1814,-0.1857,-0.1889,-0.1926,-0.1985,-0.2013,-0.2035,-0.2096,-0.2133,-0.2208,-0.2229,-0.2275,-0.236,-0.2379,-0.24,-0.2457,-0.2443,-0.2477,-0.2495,-0.2487,-0.2488,-0.2488,-0.2471,-0.247,-0.2485,-0.2485,-0.2485,0,-0.1821,-0.1865,-0.1904,-0.1944,-0.1978,-0.2027,-0.2067,-0.2112,-0.2193,-0.2223,-0.2238,-0.2339,-0.2373,-0.2422,-0.244,-0.2462,-0.2455,-0.2467,-0.2488,-0.2489,-0.2489,-0.2471,-0.247,-0.2486,-0.2486,-0.2486,-0.2485,0,-0.185,-0.1898,-0.1921,-0.1986,-0.2028,-0.2071,-0.2129,-0.2183,-0.2233,-0.2268,-0.2337,-0.2378,-0.2432,-0.2449,-0.2466,-0.2493,-0.2485,-0.2483,-0.2465,-0.249,-0.2471,-0.2469,-0.2486,-0.2486,-0.2486,-0.2486,0,0,-0.1822,-0.1922,-0.1933,-0.1972,-0.2053,-0.2089,-0.2159,-0.2223,-0.2272,-0.2335,-0.2385,-0.2444,-0.2459,-0.2484,-0.2504,-0.2506,-0.2499,-0.2504,-0.2503,-0.2467,-0.2477,-0.2345,-0.2331,-0.2498,-0.2498,-0.2498,-0.2459,0,-0.1832,-0.1905,-0.1955,-0.2031,-0.207,-0.2138,-0.2197,-0.2264,-0.2323,-0.2385,-0.2415,-0.2471,-0.2475,-0.2503,-0.2504,-0.2511,-0.2497,-0.251,-0.2476,-0.2474,-0.2338,-0.2325,-0.2498,-0.2458,-0.2457,-0.2457,-0.2457,0,-0.1831,-0.1883,-0.1955,-0.2052,-0.2077,-0.2133,-0.2229,-0.2291,-0.2375,-0.2418,-0.2464,-0.2497,-0.2529,-0.2519,-0.2516,-0.2527,-0.25,-0.2489,-0.2487,-0.2362,-0.234,-0.2432,-0.2454,-0.2454,-0.2454,-0.2454,-0.2455,0,-0.1769,-0.1876,-0.1934,-0.1969,-0.2088,-0.2138,-0.2203,-0.2298,-0.2352,-0.2437,-0.2476,-0.2516,-0.2543,-0.2524,-0.2516,-0.2519,-0.2492,-0.2488,-0.2337,-0.2328,-0.2459,-0.2459,-0.2456,-0.2456,-0.2456,-0.2456,-0.2456,0,-0.1734,-0.1785,-0.1917,-0.1949,-0.2023,-0.2116,-0.2196,-0.2267,-0.2361,-0.2406,-0.2486,-0.2509,-0.2546,-0.2545,-0.2517,-0.2417,-0.2487,-0.2325,-0.2302,-0.2462,-0.2462,-0.2457,-0.2458,-0.2455,-0.2455,-0.2455,-0.2456,0,-0.1647,-0.174,-0.1812,-0.1947,-0.1995,-0.2045,-0.2185,-0.2229,-0.2338,-0.2395,-0.2422,-0.2508,-0.25,-0.2515,-0.2487,-0.2402,-0.2335,-0.2279,-0.2448,-0.2438,-0.2175,-0.2177,-0.2092,-0.2087,-0.2083,-0.2079,-0.2076,0,-0.1605,-0.1635,-0.1788,-0.1833,-0.19,-0.1997,-0.2053,-0.219,-0.2232,-0.2368,-0.2368,-0.2425,-0.2455,-0.2309,-0.234,-0.2261,-0.2233,-0.2176,-0.2167,-0.2148,-0.2135,-0.2144,-0.2151,-0.2069,-0.2068,-0.2067,-0.2066,0,-0.1511,-0.158,-0.1641,-0.1733,-0.1809,-0.1883,-0.1976,-0.1995,-0.2133,-0.2257,-0.2253,-0.2243,-0.2233,-0.2207,-0.2162,-0.2107,-0.2203,-0.213,-0.2138,-0.2129,-0.2119,-0.2113,-0.2125,-0.205,-0.2053,-0.2054,-0.2055,0,-0.1437,-0.1455,-0.1544,-0.1605,-0.1696,-0.1727,-0.1805,-0.1853,-0.1917,-0.2074,-0.2064,-0.2128,-0.2215,-0.2125,-0.2085,-0.2023,-0.1985,-0.1905,-0.1924,-0.1941,-0.1909,-0.1875,-0.1694,0,0,0,0,0,-0.1349,-0.1357,-0.1408,-0.1472,-0.155,-0.1601,-0.1727,-0.1808,-0.1948,-0.1893,-0.1978,-0.1963,-0.192,-0.1956,-0.1854,-0.1997,-0.1983,-0.1869,-0.1899,-0.1967,-0.1984,-0.1959,0,0,0,0,0,0,-0.1296,-0.1339,-0.1356,-0.1331,-0.1345,-0.1418,-0.149,-0.1597,-0.1586,-0.1735,-0.1725,-0.1832,-0.1819,-0.1941,-0.1809,-0.1815,-0.1791,-0.1918,-0.1912,-0.1957,-0.1973,-0.1987,-0.1967,0,0,0,0,0]},{"header":{"parameterUnit":"m.s-1","parameterCategory":2,"la1":30.2991,"la2":30.254,"lo1":-89.0895,"lo2":-89.0444,"dy":0.0017,"dx":0.0017,"nx":28,"ny":28,"refTime":"2023-04-23T21:00:00:Z","depth":"4","parameterNumber":3,"parameterNumberName":"V-component_of_CURRENTS"},"data":[0,0,0,0,0,0,0,0,0,0,0,0,0,0,0,0,0,0,0,0,0,0,0,0,0,0,0,0,0,0,0,0,0,0,0,0,0,0,0,0,0,0,0,0,0,0,0,0,0,0,0,0,0,0,0,0,0,0,-0.0186,-0.0186,0,-0.0153,-0.0153,-0.0152,-0.0115,-0.0114,-0.0114,-0.0113,-0.0039,-0.0038,-0.0037,0,0,0,0,0,0,0,0,0,0,0,0,0,-0.0188,-0.0188,-0.0186,-0.0186,-0.0185,-0.0153,-0.0153,-0.0152,-0.0115,-0.0114,-0.0113,-0.0113,-0.004,-0.0038,-0.0037,0,0,0,0,0,0,0,0,0,0,0,0,0,-0.0175,-0.0188,-0.0186,-0.0162,-0.016,-0.0153,-0.0153,-0.0152,-0.0115,-0.0114,-0.0113,-0.0112,-0.004,-0.0038,-0.0036,-0.0042,0,0,-0.003,-0.0029,0,0,0,0,0,0,0,0,-0.0176,-0.0175,-0.0166,-0.0164,-0.0161,-0.0137,-0.0126,-0.0113,-0.0115,-0.0133,-0.0113,-0.0112,-0.0069,-0.0064,-0.0061,-0.0038,-0.0035,-0.003,-0.0029,-0.0028,-0.0027,0,0,0,0,0,0,0,-0.0177,-0.0176,-0.0173,-0.0166,-0.0163,-0.0143,-0.0141,-0.0124,-0.0106,-0.0131,-0.0128,-0.0124,-0.0067,-0.0063,-0.0059,-0.0034,-0.003,-0.0028,-0.0027,-0.0026,-0.0018,-0.0019,0,0,0,0,0,0,-0.0182,-0.0177,-0.0174,-0.0172,-0.0166,-0.0144,-0.0141,-0.0146,-0.0107,-0.01,-0.0125,-0.0122,-0.0067,-0.0062,-0.0056,-0.0064,-0.0028,-0.0026,-0.0024,-0.0017,-0.0018,-0.002,0,0,0,0,0,0,-0.0183,-0.0183,-0.0176,-0.0173,-0.017,-0.0145,-0.015,-0.0146,-0.0142,-0.0102,-0.0095,-0.0126,-0.0066,-0.0059,-0.0048,-0.0061,-0.0025,-0.0023,-0.0016,-0.0018,-0.0019,-0.0077,0,0,0,0,0,0,-0.0183,-0.0183,-0.0193,-0.0174,-0.0171,-0.0179,-0.0151,-0.0146,-0.0141,-0.0137,-0.0101,-0.0093,-0.0065,-0.0051,-0.0046,-0.0057,-0.0021,-0.0015,-0.0017,-0.0018,-0.0074,-0.008,-0.0086,0,0,0,0,0,-0.0183,-0.0201,-0.0194,-0.0193,-0.0184,-0.0179,-0.0177,-0.0155,-0.0142,-0.0148,-0.0124,-0.0094,-0.006,-0.0051,-0.0044,-0.0055,-0.0014,-0.0016,-0.0018,-0.0071,-0.0079,-0.0086,0,0,0,0,0,0,-0.0207,-0.0198,-0.019,-0.0203,-0.0195,-0.0173,-0.0177,-0.0162,-0.0149,-0.0147,-0.0106,-0.0097,-0.0094,-0.007,-0.0061,-0.006,-0.0033,-0.0034,-0.0075,-0.0083,-0.0089,-0.0089,-0.0019,0,0,0,0,0,-0.0218,-0.0228,-0.0213,-0.0225,-0.0223,-0.0202,-0.0199,-0.0186,-0.017,-0.0163,-0.0136,-0.0113,-0.0101,-0.0088,-0.0073,-0.007,-0.0027,-0.0074,-0.008,-0.0086,-0.0083,-0.0038,-0.0039,-0.0027,-0.0027,-0.0027,0,0,-0.023,-0.0227,-0.0232,-0.0231,-0.0222,-0.0231,-0.0198,-0.0201,-0.0206,-0.0158,-0.0158,-0.0136,-0.0107,-0.0105,-0.0101,-0.0084,-0.0066,-0.0088,-0.0093,-0.0087,-0.0041,-0.0041,-0.0042,-0.0029,-0.0029,-0.0028,0,0,-0.0262,-0.0258,-0.0277,-0.0276,-0.027,-0.0258,-0.0261,-0.0245,-0.0234,-0.0234,-0.0203,-0.0187,-0.0167,-0.0144,-0.0132,-0.0163,-0.0104,-0.0163,-0.0186,-0.0144,-0.0144,-0.0144,-0.0084,-0.0078,-0.0161,-0.0161,-0.0161,0,-0.0278,-0.0299,-0.0282,-0.03,-0.0304,-0.0274,-0.0295,-0.0284,-0.0265,-0.0257,-0.0243,-0.0209,-0.0185,-0.0173,-0.0185,-0.0176,-0.0135,-0.016,-0.015,-0.0149,-0.0147,-0.0086,-0.0079,-0.0164,-0.0164,-0.0163,-0.0163,0,-0.0323,-0.0339,-0.0351,-0.0363,-0.0367,-0.038,-0.0363,-0.0359,-0.0342,-0.0323,-0.0309,-0.0273,-0.0248,-0.0243,-0.0223,-0.0207,-0.0175,-0.0166,-0.0128,-0.0152,-0.0086,-0.0077,-0.0168,-0.0167,-0.0166,-0.0166,0,0,-0.0358,-0.0379,-0.0383,-0.04,-0.0401,-0.041,-0.0417,-0.041,-0.0409,-0.0383,-0.0371,-0.0349,-0.0317,-0.0301,-0.0269,-0.0231,-0.0186,-0.0197,-0.0193,-0.0132,-0.0074,-0.0059,-0.0046,-0.0173,-0.0172,-0.0171,-0.003,0,-0.0397,-0.0447,-0.0443,-0.0485,-0.0508,-0.0485,-0.0496,-0.0485,-0.0459,-0.0438,-0.0389,-0.0372,-0.0343,-0.0329,-0.0288,-0.0213,-0.0166,-0.0224,-0.0066,-0.0061,-0.0039,-0.0037,-0.0168,-0.0023,-0.002,-0.0019,-0.0018,0,-0.0441,-0.0469,-0.0521,-0.0547,-0.0554,-0.0575,-0.0577,-0.0578,-0.0536,-0.0514,-0.0473,-0.0427,-0.0369,-0.0345,-0.0214,-0.0251,-0.017,-0.0106,-0.0099,-0.0056,-0.0029,0.0004,-0.0,-0.0002,-0.0003,-0.0004,-0.0005,0,-0.0477,-0.0519,-0.0564,-0.0575,-0.0601,-0.0618,-0.0625,-0.0604,-0.0603,-0.0552,-0.0536,-0.0459,-0.0413,-0.0311,-0.0181,-0.0194,-0.0023,-0.0023,0.0073,0.0077,0.0047,0.0045,0.0071,0.0071,0.0071,0.007,0.007,0,-0.0516,-0.0551,-0.0588,-0.0614,-0.0668,-0.0665,-0.0698,-0.0686,-0.0661,-0.0653,-0.0577,-0.0543,-0.0403,-0.029,-0.0178,-0.0016,-0.0015,0.0078,0.0112,0.0019,0.0013,0.0055,0.0051,0.0076,0.0074,0.0073,0.0072,0,-0.0545,-0.0568,-0.0624,-0.0669,-0.0688,-0.0726,-0.0758,-0.0772,-0.0737,-0.0718,-0.0703,-0.0592,-0.0439,-0.0284,-0.0097,-0.001,0.0138,0.0195,0.0105,0.013,0.0212,0.0203,0.0317,0.0319,0.032,0.0321,0.0322,0,-0.0562,-0.0594,-0.067,-0.0714,-0.074,-0.0791,-0.0826,-0.0816,-0.0817,-0.0745,-0.0732,-0.0588,-0.0495,-0.0206,-0.0054,0.0183,0.0205,0.0286,0.0228,0.0215,0.0237,0.0226,0.0215,0.0325,0.0325,0.0325,0.0326,0,-0.0593,-0.0622,-0.067,-0.0763,-0.082,-0.0874,-0.0911,-0.0916,-0.0882,-0.0854,-0.0736,-0.0584,-0.0401,-0.0195,-0.0001,0.0157,0.0231,0.0301,0.0298,0.0245,0.0226,0.0243,0.0231,0.0331,0.033,0.033,0.0329,0,-0.0609,-0.0655,-0.0723,-0.08,-0.0878,-0.0928,-0.0947,-0.0928,-0.0916,-0.0821,-0.0781,-0.0582,-0.0463,-0.0206,-0.0035,0.0132,0.016,0.0194,0.0197,0.0194,0.0105,0.0059,0.015,0,0,0,0,0,-0.0621,-0.0675,-0.0754,-0.0835,-0.0912,-0.0954,-0.0989,-0.0989,-0.0952,-0.0873,-0.082,-0.0645,-0.0366,-0.0247,-0.0075,-0.0028,0.0173,0.0176,0.0209,0.0358,0.0352,0.0269,0,0,0,0,0,0,-0.0632,-0.0709,-0.0752,-0.0844,-0.0903,-0.0978,-0.1004,-0.0984,-0.0925,-0.0864,-0.0713,-0.0615,-0.0346,-0.0462,-0.0074,-0.0023,0.0018,0.0312,0.0315,0.0361,0.0356,0.0352,0.0263,0,0,0,0,0]}]]